{"data":{"norad_id":48376,"epoch":"2026-09-20T00:00:02.999808Z","epoch_age_seconds":76838,"freshness":"FRESH","line1":"1 48376U 21038Z   26263.00003472  .00251000  34316-4  79802-3 0  9995","line2":"2 48376  53.1477 126.8474 0004084 166.0349 277.5892 15.90742077  6024","mean_motion":15.90742077,"eccentricity":0.0004084,"inclination_deg":53.1477,"raan_deg":126.8474,"arg_perigee_deg":166.0349,"mean_anomaly_deg":277.5892,"bstar":0.00079802,"rev_number":602,"period_min":90.523788917165,"perigee_km":297.4776644348,"apogee_km":302.93253426155,"semimajor_km":6678.3420993482,"source":"CELESTRAK","updated_at":"2026-09-20T09:00:38.943077Z"}}